TIME,DELAY(SENSOR),PRES,OXYGEN,RAWTEMP,T(OPTODE),TCPHASE,FLUOR,BETA(BETA700),BETA(BETA412),BETA(BETA440),CDOM,C(CSC),ED(ED412.20),ED(ED444.00),ED(ED489.60),ED(ED554.30),LU(LU412.10),LU(LU443.90),LU(LU489.70),LU(LU554.70),COMP,TILTX,TILTY,CHECK
1343532451,5810,900.4299926757812000,35.0913391113281250,560.8862304687500000,4.4584259986877440,56.2739295959472660,55,99,100,78,83,15542,0,0,0,0,2147118893,2147777142,2147573769,2147572352,937,3,13,2643
1343536047,5810,973.3699951171875000,42.5142211914062500,567.8707275390625000,4.2417111396789550,55.2187614440918000,55,100,101,78,83,15540,0,0,0,0,2147120274,2147777828,2147574893,2147571766,3176,3,13,6743
1343539647,5807,992.0100097656250000,43.6459312438964840,568.5430297851562000,4.2208271026611330,55.0677604675293000,56,98,102,78,83,15537,0,0,0,0,2147126500,2147773851,2147572214,2147572690,159,3,13,20743
1343543247,5811,1000.8499755859375000,43.4511489868164060,568.4783935546875000,4.2228360176086430,55.0888099670410160,55,101,101,78,84,15536,0,0,0,0,2147124973,2147779858,2147571209,2147573805,396,3,13,63622
1343546847,5810,1005.6500244140625000,43.3324890136718750,568.4453735351562000,4.2238621711730960,55.1101608276367200,55,100,101,78,82,15524,0,0,0,0,2147121929,2147773120,2147574244,2147572571,361,3,13,48243
1343550447,5808,1013.8800048828125000,42.8620681762695300,568.5045776367188000,4.2220211029052730,55.1742591857910160,54,98,100,79,83,15515,0,0,0,0,2147120347,2147776393,2147572845,2147572772,327,3,13,34346
1343554047,5811,1010.1099853515625000,42.4988212585449200,568.0670776367188000,4.2356109619140625,55.2271308898925800,55,100,100,79,82,15522,0,0,0,0,2147123821,2147774098,2147577965,2147572306,43,3,13,30829
1343557647,5810,1012.5300292968750000,42.4994506835937500,568.7440185546875000,4.2145838737487790,55.2324790954589840,54,100,101,78,82,15522,0,0,0,0,2147121243,2147777444,2147574592,2147570706,8,3,13,18459
1343561247,5809,1010.8099975585938000,42.5414085388183600,568.4868164062500000,4.2225761413574220,55.2278404235839840,55,99,101,78,83,15519,0,0,0,0,2147124425,2147779428,2147575680,2147572681,3349,3,13,34082
1343564847,5809,1009.2600097656250000,42.4871902465820300,569.7335815429688000,4.1838397979736330,55.2432212829589840,56,99,102,78,83,15518,0,0,0,0,2147123044,2147780800,2147574838,2147572818,692,3,13,20994
1343568447,5810,1000.1199951171875000,42.7372589111328100,570.8218994140625000,4.1500167846679690,55.2187995910644500,55,102,102,79,83,15523,0,0,0,0,2147122002,2147776566,2147577179,2147571876,118,3,13,48586
1343572047,5809,1010.0000000000000000,42.6836013793945300,570.2620239257812000,4.1674189567565920,55.2216300964355500,55,99,101,79,83,15518,0,0,0,0,2147119744,2147776594,2147572150,2147572333,279,3,13,2291
1343575647,5808,1005.0700073242188000,42.5505409240722660,571.3464965820312000,4.1337108612060550,55.2562789916992200,56,98,100,77,83,15522,0,0,0,0,2147121718,2147775195,2147577307,2147569152,3589,3,13,47544
1343579247,5811,1009.7800292968750000,42.4820785522460940,571.4030761718750000,4.1319499015808105,55.2660789489746100,55,101,102,78,81,15517,0,0,0,0,2147123995,2147772013,2147574025,2147569773,74,3,13,53826
1343582847,5810,1012.0000000000000000,42.1545906066894500,569.6295166015625000,4.1870751380920410,55.2952308654785160,55,110,101,78,82,15518,0,0,0,0,2147121636,2147778276,2147576566,2147571081,101,3,13,63468
1343586447,5809,1012.5000000000000000,41.9901199340820300,569.5255737304688000,4.1903038024902340,55.3180313110351560,56,98,100,77,82,15518,0,0,0,0,2147126098,2147778715,2147576621,2147567634,320,3,13,27932
1343590047,5812,1021.9899902343750000,42.4980506896972660,568.6251220703125000,4.2182788848876950,55.2311897277832000,55,103,101,78,83,15518,0,0,0,0,2147122861,2147773193,2147578642,2147571401,3476,3,13,24116
1343593647,5809,1022.7899780273438000,41.9756088256835940,568.8693847656250000,4.2106881141662600,55.3092803955078100,54,101,101,78,83,15516,0,0,0,0,2147120374,2147776137,2147570505,2147572726,129,3,13,808
1343597247,5811,1021.5499877929688000,42.1805000305175800,568.4796752929688000,4.2227950096130370,55.2746086120605500,55,99,103,79,83,15516,0,0,0,0,2147119259,2147776475,2147572416,2147571776,22,3,13,61685
1343600847,5809,1020.9699707031250000,42.1850395202636700,568.4210815429688000,4.2246150970458980,55.2760505676269500,54,100,101,77,82,15515,0,0,0,0,2147122752,2147776877,2147575936,2147572123,573,3,13,19993
1343604447,5808,1023.8400268554688000,42.0226211547851560,568.4171142578125000,4.2247409820556640,55.2980003356933600,56,100,102,77,83,15515,0,0,0,0,2147121225,2147777097,2147576438,2147568658,341,3,13,7222
1343608047,5811,1017.3099975585938000,42.4061088562011700,569.2902832031250000,4.1976108551025390,55.2532997131347660,55,99,102,78,83,15515,0,0,0,0,2147122688,2147772096,2147575798,2147568987,3261,3,13,32653
1343611647,5811,1014.2600097656250000,42.4658889770507800,570.7418823242188000,4.1525020599365230,55.2619209289550800,55,97,103,79,83,15497,0,0,0,0,2147121883,2147773138,2147573586,2147571876,3573,3,13,7635
1343615247,5809,1018.5599975585938000,42.2403488159179700,571.1409301757812000,4.1401019096374510,55.2965393066406250,55,121,100,78,83,15500,0,0,0,0,2147124443,2147773997,2147574774,2147573120,3382,3,13,25814
1343618847,5809,1020.5300292968750000,43.1624984741210940,571.1663208007812000,4.1393132209777830,55.1643409729003900,54,99,102,78,83,15496,0,0,0,0,2147122093,2147773202,2147574966,2147568740,584,3,13,29694
1343622447,5811,1016.8599853515625000,42.4394493103027340,571.1071166992188000,4.1411509513854980,55.2716102600097660,54,100,100,78,83,15494,0,0,0,0,2147122925,2147774857,2147574171,2147574262,91,3,13,17769
1343626047,5810,1016.1300048828125000,43.1600418090820300,571.0742187500000000,4.1421761512756350,55.1649513244628900,55,100,100,78,82,15494,0,0,0,0,2147122861,2147773266,2147570852,2147571465,3532,3,13,48271
1343629647,5811,1015.5800170898438000,42.7904205322265600,571.0725097656250000,4.1422271728515625,55.2177505493164060,55,103,101,80,83,15495,0,0,0,0,2147122678,2147775241,2147571849,2147569755,12,3,13,42369
1343633247,5811,1019.7000122070312000,42.8110809326171900,570.5277709960938000,4.1591591835021970,55.2057304382324200,55,100,102,78,82,15489,0,0,0,0,2147121664,2147775350,2147573988,2147570834,3517,3,13,22776
1343636847,5814,1019.1099853515625000,42.7258415222168000,570.2343750000000000,4.1682782173156740,55.2138404846191400,55,101,101,77,82,15492,0,0,0,0,2147123382,2147775862,2147577627,2147569152,16,3,13,35312
1343640447,5807,1023.6900024414062000,42.5435600280761700,570.0747070312500000,4.1732392311096190,55.2418098449707000,55,101,102,80,83,15489,0,0,0,0,2147125604,2147776841,2147574290,2147570038,223,3,13,13373
1343644047,5808,1026.5000000000000000,42.3565711975097660,569.7357788085938000,4.1837692260742190,55.2619018554687500,55,100,101,78,84,15488,0,0,0,0,2147123081,2147771693,2147575030,2147572187,395,3,13,48665
1343647647,5807,1030.1400146484375000,42.4587211608886700,568.9760131835938000,4.2073798179626465,55.2402801513671900,56,101,101,78,83,15491,0,0,0,0,2147122678,2147773366,2147574189,2147571108,274,3,13,33991
1343651247,5808,1025.5100097656250000,41.7485885620117200,569.1428222656250000,4.2021961212158200,55.3486289978027340,55,103,101,78,83,15490,0,0,0,0,2147123812,2147774619,2147572891,2147575469,507,3,13,41972
1343654847,5808,1016.6300048828125000,41.9359016418457000,569.5817871093750000,4.1885571479797360,55.3261108398437500,54,100,103,77,84,15478,0,0,0,0,2147122121,2147777764,2147574107,2147573184,3407,3,13,39280
1343658447,5813,1015.4000244140625000,42.2542304992675800,570.8256835937500000,4.1498970985412600,55.2879791259765600,55,100,103,79,83,15483,0,0,0,0,2147122587,2147773257,2147575542,2147573586,635,3,13,14512
1343662047,5806,1018.7999877929688000,42.8317909240722660,571.6552124023438000,4.1241130828857420,55.2177505493164060,54,98,102,77,83,15486,0,0,0,0,2147121810,2147772306,2147576018,2147569563,291,3,13,10831
1343665647,5807,1023.8800048828125000,43.2050514221191400,571.2106933593750000,4.1379318237304690,55.1562118530273440,54,98,102,78,84,15485,0,0,0,0,2147121654,2147774345,2147576356,2147567707,40,3,13,55490
1343669247,5809,1018.4400024414062000,42.1086807250976560,570.7619018554688000,4.1518821716308590,55.3140296936035160,56,100,103,78,82,15462,0,0,0,0,2147121773,2147772525,2147575003,2147571794,251,3,13,17848
1343672847,5811,1024.8800048828125000,42.5811080932617200,570.1220703125000000,4.1717681884765625,55.2339210510253900,55,103,101,78,82,15460,0,0,0,0,2147122880,2147772717,2147573915,2147570267,30,3,13,40660
1343676357,5810,1016.9699707031250000,42.7237205505371100,571.3928222656250000,4.1322731971740720,55.2272605895996100,56,101,100,78,83,15462,0,0,0,0,2147123181,2147777280,2147579693,2147571501,275,3,13,7023
